| time (UTC) | temp C | wind direction | speed KPH | gust KPH | rain 1hr cm | rain 24hr cm | rain mn cm | humidity % | barometer mb |
| 20260505074600 | 32 | 100 | 4.8 | 12.9 | 0.00 | 0.00 | 0.00 | 69 | 1008.5 |
| 20260505073002 | 32 | 84 | 6.4 | 14.5 | 0.00 | 0.00 | 0.00 | 69 | 1008.7 |
| 20260505071602 | 32 | 111 | 4.8 | 11.3 | 0.00 | 0.00 | 0.00 | 70 | 1009.0 |
| 20260505064559 | 32 | 74 | 4.8 | 14.5 | 0.00 | 0.00 | 0.00 | 71 | 1009.3 |
| 20260505063002 | -17 | 526.3 | 410.4 | 0.00 | 0.00 | 0.00 | 1009.7 | ||
| 20260505061625 | -17 | 526.3 | 410.4 | 0.00 | 0.00 | 0.00 | 1010.0 | ||
| 20260505054559 | -17 | 526.3 | 410.4 | 0.00 | 0.00 | 0.00 | 1010.7 | ||
| 20260505051558 | -17 | 526.3 | 410.4 | 0.00 | 0.00 | 0.00 | 1011.1 | ||
| 20260505041503 | -17 | 526.3 | 410.4 | 0.00 | 0.00 | 0.00 | 1011.9 | ||
| 20260505040005 | -17 | 526.3 | 410.4 | 0.00 | 0.00 | 0.00 | 1012.0 | ||
| 20260505034502 | -17 | 526.3 | 410.4 | 0.00 | 0.00 | 0.00 | 1011.9 | ||
| 20260505033011 | -17 | 526.3 | 410.4 | 0.00 | 0.00 | 0.00 | 1011.8 | ||
| 20260505031502 | -17 | 526.3 | 410.4 | 0.00 | 0.00 | 0.00 | 1011.7 | ||
| 20260505030008 | -17 | 526.3 | 410.4 | 0.00 | 0.00 | 0.00 | 1011.5 | ||
| 20260505024503 | -17 | 526.3 | 410.4 | 0.00 | 0.00 | 0.00 | 1011.6 | ||
| 20260505023005 | -17 | 526.3 | 410.4 | 0.00 | 0.00 | 0.00 | 1011.5 | ||
| 20260505021504 | -17 | 526.3 | 410.4 | 0.00 | 0.00 | 0.00 | 1011.5 | ||
| 20260505020007 | -17 | 526.3 | 410.4 | 0.00 | 0.00 | 0.00 | 1011.6 | ||
| 20260505014503 | -17 | 526.3 | 410.4 | 0.00 | 0.00 | 0.00 | 1011.4 | ||
| 20260505013005 | -17 | 526.3 | 410.4 | 0.00 | 0.00 | 0.00 | 1011.1 | ||
| 20260505011502 | -17 | 526.3 | 410.4 | 0.00 | 0.00 | 0.00 | 1011.1 | ||
| 20260505010002 | -17 | 526.3 | 410.4 | 0.00 | 0.00 | 0.00 | 1010.9 | ||
| 20260505004502 | -17 | 526.3 | 410.4 | 0.00 | 0.00 | 0.00 | 1010.6 | ||
| 20260505003004 | -17 | 526.3 | 410.4 | 0.00 | 0.00 | 0.00 | 1010.2 | ||
| 20260505001503 | -17 | 526.3 | 410.4 | 0.00 | 0.00 | 0.00 | 1010.0 | ||
| 20260505000003 | -17 | 526.3 | 410.4 | 0.00 | 0.00 | 0.00 | 1009.9 | ||
| 20260504234503 | -17 | 526.3 | 410.4 | 0.00 | 0.00 | 0.00 | 1009.5 | ||
| 20260504233005 | -17 | 526.3 | 410.4 | 0.00 | 0.00 | 0.00 | 1009.4 | ||
| 20260504231501 | -17 | 526.3 | 410.4 | 0.00 | 0.00 | 0.00 | 1009.1 | ||
| 20260504230002 | -17 | 526.3 | 410.4 | 0.00 | 0.00 | 0.00 | 1009.0 | ||
| 20260504224502 | 27 | 61 | 0.0 | 6.4 | 0.00 | 0.00 | 0.00 | 96 | 1009.0 |
| 20260504223005 | 27 | 66 | 3.2 | 6.4 | 0.00 | 0.00 | 0.00 | 96 | 1008.9 |
| 20260504221502 | 27 | 78 | 1.6 | 6.4 | 0.00 | 0.00 | 0.00 | 96 | 1008.7 |
| 20260504220006 | 27 | 72 | 1.6 | 9.7 | 0.00 | 0.00 | 0.00 | 96 | 1008.6 |
| 20260504214504 | 27 | 69 | 1.6 | 8.0 | 0.00 | 0.00 | 0.00 | 96 | 1008.5 |
| 20260504213002 | 27 | 71 | 1.6 | 11.3 | 0.00 | 0.00 | 0.00 | 96 | 1008.3 |
| 20260504211502 | 27 | 67 | 3.2 | 8.0 | 0.00 | 0.00 | 0.00 | 96 | 1008.4 |
| 20260504210003 | 27 | 82 | 3.2 | 8.0 | 0.00 | 0.00 | 0.00 | 96 | 1008.4 |
| 20260504204502 | 27 | 64 | 1.6 | 4.8 | 0.00 | 0.00 | 0.00 | 96 | 1008.4 |
| 20260504203005 | 27 | 39 | 1.6 | 4.8 | 0.00 | 0.00 | 0.00 | 96 | 1008.5 |
| 20260504201502 | 27 | 128 | 0.0 | 4.8 | 0.00 | 0.00 | 0.00 | 95 | 1008.4 |
| 20260504200004 | 27 | 108 | 1.6 | 6.4 | 0.00 | 0.00 | 0.00 | 95 | 1008.2 |
| 20260504194502 | 27 | 119 | 3.2 | 9.7 | 0.00 | 0.00 | 0.00 | 95 | 1008.3 |
| 20260504193005 | 27 | 113 | 3.2 | 11.3 | 0.00 | 0.00 | 0.00 | 95 | 1008.6 |
| 20260504191502 | 28 | 65 | 3.2 | 9.7 | 0.00 | 0.00 | 0.00 | 95 | 1008.4 |
| 20260504190002 | 27 | 77 | 3.2 | 6.4 | 0.00 | 0.00 | 0.00 | 95 | 1008.5 |
| 20260504184504 | 27 | 84 | 3.2 | 8.0 | 0.00 | 0.00 | 0.00 | 95 | 1008.7 |
| 20260504183005 | 27 | 77 | 3.2 | 11.3 | 0.00 | 0.00 | 0.00 | 95 | 1008.6 |
| 20260504181502 | 27 | 65 | 1.6 | 9.7 | 0.00 | 0.00 | 0.00 | 95 | 1008.8 |
| 20260504180003 | 27 | 82 | 4.8 | 12.9 | 0.00 | 0.00 | 0.00 | 95 | 1008.8 |
| 20260504174502 | 27 | 130 | 3.2 | 9.7 | 0.00 | 0.00 | 0.00 | 95 | 1009.1 |
| 20260504173008 | 27 | 86 | 1.6 | 6.4 | 0.00 | 0.00 | 0.00 | 95 | 1008.7 |
| 20260504171507 | 27 | 123 | 3.2 | 6.4 | 0.00 | 0.00 | 0.00 | 95 | 1008.8 |
| 20260504081505 | 33 | 289 | 4.8 | 11.3 | 0.00 | 0.00 | 0.00 | 72 | 1007.6 |